Year,Month,Day,Hour,Minute,Value (Times are PST for temperature in C)
2014,07,12,00,00,16.50
2014,07,12,00,01,16.60
2014,07,12,00,02,16.60
2014,07,12,00,03,16.70
2014,07,12,00,04,16.70
2014,07,12,00,05,16.80
2014,07,12,00,06,16.80
2014,07,12,00,07,16.90
2014,07,12,00,08,16.90
2014,07,12,00,09,17.00
2014,07,12,00,10,17.00
2014,07,12,00,11,17.10
2014,07,12,00,12,17.20
2014,07,12,00,13,17.20
2014,07,12,00,14,17.30
2014,07,12,00,15,17.30
2014,07,12,00,16,17.40
2014,07,12,00,17,17.40
2014,07,12,00,18,17.40
2014,07,12,00,19,17.40
2014,07,12,00,20,17.40
2014,07,12,00,21,17.40
2014,07,12,00,22,17.40
2014,07,12,00,23,17.40
2014,07,12,00,24,17.40
2014,07,12,00,25,17.40
2014,07,12,00,26,17.40
2014,07,12,00,27,17.40
2014,07,12,00,28,17.40
2014,07,12,00,29,17.30
2014,07,12,00,30,17.30
2014,07,12,00,31,17.30
2014,07,12,00,32,17.30
2014,07,12,00,33,17.30
2014,07,12,00,34,17.30
2014,07,12,00,35,17.20
2014,07,12,00,36,17.20
2014,07,12,00,37,17.20
2014,07,12,00,38,17.10
2014,07,12,00,39,17.10
2014,07,12,00,40,17.10
2014,07,12,00,41,17.10
2014,07,12,00,42,17.00
2014,07,12,00,43,17.00
2014,07,12,00,44,17.00
2014,07,12,00,45,17.00
2014,07,12,00,46,16.90
2014,07,12,00,47,16.90
2014,07,12,00,48,16.90
2014,07,12,00,49,16.90
2014,07,12,00,50,16.90
2014,07,12,00,51,16.90
2014,07,12,00,52,16.90
2014,07,12,00,53,16.90
2014,07,12,00,54,16.90
2014,07,12,00,55,16.90
2014,07,12,00,56,16.90
2014,07,12,00,57,16.90
2014,07,12,00,58,17.00
2014,07,12,00,59,17.00
2014,07,12,01,00,17.00
2014,07,12,01,01,17.00
2014,07,12,01,02,17.00
2014,07,12,01,03,17.00
2014,07,12,01,04,17.00
2014,07,12,01,05,17.00
2014,07,12,01,06,17.00
2014,07,12,01,07,17.00
2014,07,12,01,08,17.00
2014,07,12,01,09,16.90
2014,07,12,01,10,16.90
2014,07,12,01,11,16.80
2014,07,12,01,12,16.70
2014,07,12,01,13,16.70
2014,07,12,01,14,16.60
2014,07,12,01,15,16.50
2014,07,12,01,16,16.40
2014,07,12,01,17,16.40
2014,07,12,01,18,16.30
2014,07,12,01,19,16.20
2014,07,12,01,20,16.10
2014,07,12,01,21,16.00
2014,07,12,01,22,15.90
2014,07,12,01,23,15.80
2014,07,12,01,24,15.70
2014,07,12,01,25,15.70
2014,07,12,01,26,15.60
2014,07,12,01,27,15.50
2014,07,12,01,28,15.40
2014,07,12,01,29,15.40
2014,07,12,01,30,15.40
2014,07,12,01,31,15.30
2014,07,12,01,32,15.30
2014,07,12,01,33,15.30
2014,07,12,01,34,15.30
2014,07,12,01,35,15.20
2014,07,12,01,36,15.20
2014,07,12,01,37,15.20
2014,07,12,01,38,15.20
2014,07,12,01,39,15.10
2014,07,12,01,40,15.10
2014,07,12,01,41,15.10
2014,07,12,01,42,15.00
2014,07,12,01,43,15.00
2014,07,12,01,44,14.90
2014,07,12,01,45,14.90
2014,07,12,01,46,14.90
2014,07,12,01,47,14.90
2014,07,12,01,48,14.90
2014,07,12,01,49,14.90
2014,07,12,01,50,14.80
2014,07,12,01,51,14.80
2014,07,12,01,52,14.80
2014,07,12,01,53,14.80
2014,07,12,01,54,14.80
2014,07,12,01,55,14.80
2014,07,12,01,56,14.80
2014,07,12,01,57,14.80
2014,07,12,01,58,14.80
2014,07,12,01,59,14.80
2014,07,12,02,00,14.80
2014,07,12,02,01,14.80
2014,07,12,02,02,14.80
2014,07,12,02,03,14.80
2014,07,12,02,04,14.80
2014,07,12,02,05,14.80
2014,07,12,02,06,14.90
2014,07,12,02,07,14.90
2014,07,12,02,08,14.90
2014,07,12,02,09,14.90
2014,07,12,02,10,14.90
2014,07,12,02,11,14.90
2014,07,12,02,12,14.90
2014,07,12,02,13,14.90
2014,07,12,02,14,14.90
2014,07,12,02,15,14.90
2014,07,12,02,16,15.00
2014,07,12,02,17,15.00
2014,07,12,02,18,15.00
2014,07,12,02,19,15.00
2014,07,12,02,20,15.00
2014,07,12,02,21,15.00
2014,07,12,02,22,15.10
2014,07,12,02,23,15.10
2014,07,12,02,24,15.10
2014,07,12,02,25,15.10
2014,07,12,02,26,15.10
2014,07,12,02,27,15.10
2014,07,12,02,28,15.10
2014,07,12,02,29,15.10
2014,07,12,02,30,15.00
2014,07,12,02,31,15.00
2014,07,12,02,32,14.90
2014,07,12,02,33,14.90
2014,07,12,02,34,14.80
2014,07,12,02,35,14.70
2014,07,12,02,36,14.50
2014,07,12,02,37,14.40
2014,07,12,02,38,14.30
2014,07,12,02,39,14.10
2014,07,12,02,40,14.10
2014,07,12,02,41,14.00
2014,07,12,02,42,13.90
2014,07,12,02,43,13.80
2014,07,12,02,44,13.80
2014,07,12,02,45,13.70
2014,07,12,02,46,13.70
2014,07,12,02,47,13.70
2014,07,12,02,48,13.60
2014,07,12,02,49,13.60
2014,07,12,02,50,13.60
2014,07,12,02,51,13.60
2014,07,12,02,52,13.60
2014,07,12,02,53,13.60
2014,07,12,02,54,13.60
2014,07,12,02,55,13.60
2014,07,12,02,56,13.60
2014,07,12,02,57,13.60
2014,07,12,02,58,13.60
2014,07,12,02,59,13.60
2014,07,12,03,00,13.60
2014,07,12,03,01,13.60
2014,07,12,03,02,13.60
2014,07,12,03,03,13.60
2014,07,12,03,04,13.60
2014,07,12,03,05,13.70
2014,07,12,03,06,13.70
2014,07,12,03,07,13.70
2014,07,12,03,08,13.70
2014,07,12,03,09,13.80
2014,07,12,03,10,13.80
2014,07,12,03,11,13.80
2014,07,12,03,12,13.80
2014,07,12,03,13,13.80
2014,07,12,03,14,13.80
2014,07,12,03,15,13.70
2014,07,12,03,16,13.70
2014,07,12,03,17,13.60
2014,07,12,03,18,13.50
2014,07,12,03,19,13.40
2014,07,12,03,20,13.40
2014,07,12,03,21,13.30
2014,07,12,03,22,13.30
2014,07,12,03,23,13.30
2014,07,12,03,24,13.20
2014,07,12,03,25,13.20
2014,07,12,03,26,13.20
2014,07,12,03,27,13.20
2014,07,12,03,28,13.20
2014,07,12,03,29,13.20
2014,07,12,03,30,13.20
2014,07,12,03,31,13.20
2014,07,12,03,32,13.10
2014,07,12,03,33,13.10
2014,07,12,03,34,13.10
2014,07,12,03,35,13.10
2014,07,12,03,36,13.00
2014,07,12,03,37,13.00
2014,07,12,03,38,13.00
2014,07,12,03,39,13.00
2014,07,12,03,40,13.00
2014,07,12,03,41,13.10
2014,07,12,03,42,13.10
2014,07,12,03,43,13.10
2014,07,12,03,44,13.10
2014,07,12,03,45,13.10
2014,07,12,03,46,13.10
2014,07,12,03,47,13.10
2014,07,12,03,48,13.10
2014,07,12,03,49,13.10
2014,07,12,03,50,13.20
2014,07,12,03,51,13.20
2014,07,12,03,52,13.20
2014,07,12,03,53,13.20
2014,07,12,03,54,13.20
2014,07,12,03,55,13.30
2014,07,12,03,56,13.30
2014,07,12,03,57,13.30
2014,07,12,03,58,13.30
2014,07,12,03,59,13.40
2014,07,12,04,00,13.40
2014,07,12,04,01,13.40
2014,07,12,04,02,13.40
2014,07,12,04,03,13.40
2014,07,12,04,04,13.50
2014,07,12,04,05,13.50
2014,07,12,04,06,13.60
2014,07,12,04,07,13.60
2014,07,12,04,08,13.60
2014,07,12,04,09,13.70
2014,07,12,04,10,13.70
2014,07,12,04,11,13.70
2014,07,12,04,12,13.70
2014,07,12,04,13,13.80
2014,07,12,04,14,13.80
2014,07,12,04,15,13.80
2014,07,12,04,16,13.80
2014,07,12,04,17,13.90
2014,07,12,04,18,13.90
2014,07,12,04,19,13.90
2014,07,12,04,20,13.90
2014,07,12,04,21,14.00
2014,07,12,04,22,14.00
2014,07,12,04,23,14.10
2014,07,12,04,24,14.10
2014,07,12,04,25,14.10
2014,07,12,04,26,14.20
2014,07,12,04,27,14.20
2014,07,12,04,28,14.30
2014,07,12,04,29,14.30
2014,07,12,04,30,14.40
2014,07,12,04,31,14.50
2014,07,12,04,32,14.50
2014,07,12,04,33,14.60
2014,07,12,04,34,14.60
2014,07,12,04,35,14.70
2014,07,12,04,36,14.70
2014,07,12,04,37,14.80
2014,07,12,04,38,14.80
2014,07,12,04,39,14.90
2014,07,12,04,40,14.90
2014,07,12,04,41,14.90
2014,07,12,04,42,14.90
2014,07,12,04,43,14.90
2014,07,12,04,44,15.00
2014,07,12,04,45,15.00
2014,07,12,04,46,15.00
2014,07,12,04,47,15.00
2014,07,12,04,48,15.00
2014,07,12,04,49,15.00
2014,07,12,04,50,15.00
2014,07,12,04,51,15.00
2014,07,12,04,52,14.90
2014,07,12,04,53,14.90
2014,07,12,04,54,14.90
2014,07,12,04,55,14.90
2014,07,12,04,56,14.90
2014,07,12,04,57,14.90
2014,07,12,04,58,14.90
2014,07,12,04,59,14.90
2014,07,12,05,00,14.90
2014,07,12,05,01,14.90
2014,07,12,05,02,14.80
2014,07,12,05,03,14.80
2014,07,12,05,04,14.80
2014,07,12,05,05,14.80
2014,07,12,05,06,14.80
2014,07,12,05,07,14.80
2014,07,12,05,08,14.80
2014,07,12,05,09,14.80
2014,07,12,05,10,14.70
2014,07,12,05,11,14.70
2014,07,12,05,12,14.70
2014,07,12,05,13,14.70
2014,07,12,05,14,14.70
2014,07,12,05,15,14.70
2014,07,12,05,16,14.60
2014,07,12,05,17,14.60
2014,07,12,05,18,14.50
2014,07,12,05,19,14.40
2014,07,12,05,20,14.30
2014,07,12,05,21,14.20
2014,07,12,05,22,14.10
2014,07,12,05,23,14.00
2014,07,12,05,24,13.90
2014,07,12,05,25,13.80
2014,07,12,05,26,13.70
2014,07,12,05,27,13.60
2014,07,12,05,28,13.60
2014,07,12,05,29,13.50
2014,07,12,05,30,13.40
2014,07,12,05,31,13.30
2014,07,12,05,32,13.20
2014,07,12,05,33,13.20
2014,07,12,05,34,13.10
2014,07,12,05,35,13.10
2014,07,12,05,36,13.00
2014,07,12,05,37,12.90
2014,07,12,05,38,12.90
2014,07,12,05,39,12.80
2014,07,12,05,40,12.80
2014,07,12,05,41,12.80
2014,07,12,05,42,12.80
2014,07,12,05,43,12.80
2014,07,12,05,44,12.80
2014,07,12,05,45,12.70
2014,07,12,05,46,12.70
2014,07,12,05,47,12.70
2014,07,12,05,48,12.70
2014,07,12,05,49,12.70
2014,07,12,05,50,12.70
2014,07,12,05,51,12.70
2014,07,12,05,52,12.70
2014,07,12,05,53,12.70
2014,07,12,05,54,12.70
2014,07,12,05,55,12.70
2014,07,12,05,56,12.70
2014,07,12,05,57,12.70
2014,07,12,05,58,12.60
2014,07,12,05,59,12.60
2014,07,12,06,00,12.60
2014,07,12,06,01,12.60
2014,07,12,06,02,12.50
2014,07,12,06,03,12.50
2014,07,12,06,04,12.50
2014,07,12,06,05,12.40
2014,07,12,06,06,12.40
2014,07,12,06,07,12.40
2014,07,12,06,08,12.40
2014,07,12,06,09,12.40
2014,07,12,06,10,12.40
2014,07,12,06,11,12.30
2014,07,12,06,12,12.30
2014,07,12,06,13,12.30
2014,07,12,06,14,12.40
2014,07,12,06,15,12.40
2014,07,12,06,16,12.40
2014,07,12,06,17,12.40
2014,07,12,06,18,12.50
2014,07,12,06,19,12.50
2014,07,12,06,20,12.60
2014,07,12,06,21,12.60
2014,07,12,06,22,12.60
2014,07,12,06,23,12.70
2014,07,12,06,24,12.70
2014,07,12,06,25,12.70
2014,07,12,06,26,12.80
2014,07,12,06,27,12.80
2014,07,12,06,28,12.80
2014,07,12,06,29,12.80
2014,07,12,06,30,12.80
2014,07,12,06,31,12.90
2014,07,12,06,32,12.90
2014,07,12,06,33,13.00
2014,07,12,06,34,13.00
2014,07,12,06,35,13.10
2014,07,12,06,36,13.10
2014,07,12,06,37,13.10
2014,07,12,06,38,13.10
2014,07,12,06,39,13.10
2014,07,12,06,40,13.20
2014,07,12,06,41,13.20
2014,07,12,06,42,13.20
2014,07,12,06,43,13.20
2014,07,12,06,44,13.20
2014,07,12,06,45,13.20
2014,07,12,06,46,13.20
2014,07,12,06,47,13.20
2014,07,12,06,48,13.20
2014,07,12,06,49,13.30
2014,07,12,06,50,13.30
2014,07,12,06,51,13.30
2014,07,12,06,52,13.40
2014,07,12,06,53,13.40
2014,07,12,06,54,13.50
2014,07,12,06,55,13.50
2014,07,12,06,56,13.60
2014,07,12,06,57,13.70
2014,07,12,06,58,13.70
2014,07,12,06,59,13.80
2014,07,12,07,00,13.80
2014,07,12,07,01,13.90
2014,07,12,07,02,14.00
2014,07,12,07,03,14.00
2014,07,12,07,04,14.10
2014,07,12,07,05,14.10
2014,07,12,07,06,14.20
2014,07,12,07,07,14.20
2014,07,12,07,08,14.30
2014,07,12,07,09,14.30
2014,07,12,07,10,14.40
2014,07,12,07,11,14.40
2014,07,12,07,12,14.50
2014,07,12,07,13,14.60
2014,07,12,07,14,14.70
2014,07,12,07,15,14.70
2014,07,12,07,16,14.80
2014,07,12,07,17,14.80
2014,07,12,07,18,14.90
2014,07,12,07,19,14.90
2014,07,12,07,20,15.00
2014,07,12,07,21,15.10
2014,07,12,07,22,15.20
2014,07,12,07,23,15.20
2014,07,12,07,24,15.40
2014,07,12,07,25,15.40
2014,07,12,07,26,15.50
2014,07,12,07,27,15.60
2014,07,12,07,28,15.70
2014,07,12,07,29,15.80
2014,07,12,07,30,15.90
2014,07,12,07,31,16.00
2014,07,12,07,32,16.10
2014,07,12,07,33,16.20
2014,07,12,07,34,16.20
2014,07,12,07,35,16.20
2014,07,12,07,36,16.20
2014,07,12,07,37,16.20
2014,07,12,07,38,16.20
2014,07,12,07,39,16.20
2014,07,12,07,40,16.10
2014,07,12,07,41,16.10
2014,07,12,07,42,16.10
2014,07,12,07,43,16.10
2014,07,12,07,44,16.10
2014,07,12,07,45,16.10
2014,07,12,07,46,16.10
2014,07,12,07,47,16.10
2014,07,12,07,48,16.10
2014,07,12,07,49,16.10
2014,07,12,07,50,16.10
2014,07,12,07,51,16.10
2014,07,12,07,52,16.10
2014,07,12,07,53,16.10
2014,07,12,07,54,16.10
2014,07,12,07,55,16.00
2014,07,12,07,56,16.00
2014,07,12,07,57,15.90
2014,07,12,07,58,15.90
2014,07,12,07,59,15.80
2014,07,12,08,00,15.80
2014,07,12,08,01,15.80
2014,07,12,08,02,15.70
2014,07,12,08,03,15.70
2014,07,12,08,04,15.60
2014,07,12,08,05,15.50
2014,07,12,08,06,15.40
2014,07,12,08,07,15.30
2014,07,12,08,08,15.30
2014,07,12,08,09,15.20
2014,07,12,08,10,15.20
2014,07,12,08,11,15.20
2014,07,12,08,12,15.20
2014,07,12,08,13,15.30
2014,07,12,08,14,15.30
2014,07,12,08,15,15.40
2014,07,12,08,16,15.50
2014,07,12,08,17,15.60
2014,07,12,08,18,15.60
2014,07,12,08,19,15.70
2014,07,12,08,20,15.80
2014,07,12,08,21,15.80
2014,07,12,08,22,15.90
2014,07,12,08,23,16.00
2014,07,12,08,24,16.00
2014,07,12,08,25,16.00
2014,07,12,08,26,16.00
2014,07,12,08,27,16.00
2014,07,12,08,28,15.90
2014,07,12,08,29,15.90
2014,07,12,08,30,15.90
2014,07,12,08,31,15.90
2014,07,12,08,32,15.90
2014,07,12,08,33,15.90
2014,07,12,08,34,15.80
2014,07,12,08,35,15.80
2014,07,12,08,36,15.70
2014,07,12,08,37,15.70
2014,07,12,08,38,15.60
2014,07,12,08,39,15.60
2014,07,12,08,40,15.60
2014,07,12,08,41,15.50
2014,07,12,08,42,15.50
2014,07,12,08,43,15.50
2014,07,12,08,44,15.50
2014,07,12,08,45,15.50
2014,07,12,08,46,15.50
2014,07,12,08,47,15.40
2014,07,12,08,48,15.40
2014,07,12,08,49,15.30
2014,07,12,08,50,15.30
2014,07,12,08,51,15.30
2014,07,12,08,52,15.20
2014,07,12,08,53,15.20
2014,07,12,08,54,15.20
2014,07,12,08,55,15.20
2014,07,12,08,56,15.10
2014,07,12,08,57,15.10
2014,07,12,08,58,15.10
2014,07,12,08,59,15.10
2014,07,12,09,00,15.10
2014,07,12,09,01,15.10
2014,07,12,09,02,15.10
2014,07,12,09,03,15.10
2014,07,12,09,04,15.20
2014,07,12,09,05,15.20
2014,07,12,09,06,15.30
2014,07,12,09,07,15.30
2014,07,12,09,08,15.40
2014,07,12,09,09,15.40
2014,07,12,09,10,15.40
2014,07,12,09,11,15.50
2014,07,12,09,12,15.50
2014,07,12,09,13,15.60
2014,07,12,09,14,15.70
2014,07,12,09,15,15.80
2014,07,12,09,16,15.90
2014,07,12,09,17,16.00
2014,07,12,09,18,16.10
2014,07,12,09,19,16.20
2014,07,12,09,20,16.30
2014,07,12,09,21,16.40
2014,07,12,09,22,16.60
2014,07,12,09,23,16.70
2014,07,12,09,24,16.80
2014,07,12,09,25,16.90
2014,07,12,09,26,17.00
2014,07,12,09,27,17.10
2014,07,12,09,28,17.20
2014,07,12,09,29,17.30
2014,07,12,09,30,17.30
2014,07,12,09,31,17.40
2014,07,12,09,32,17.50
2014,07,12,09,33,17.50
2014,07,12,09,34,17.60
2014,07,12,09,35,17.60
2014,07,12,09,36,17.60
2014,07,12,09,37,17.60
2014,07,12,09,38,17.50
2014,07,12,09,39,17.50
2014,07,12,09,40,17.40
2014,07,12,09,41,17.40
2014,07,12,09,42,17.40
2014,07,12,09,43,17.40
2014,07,12,09,44,17.50
2014,07,12,09,45,17.50
2014,07,12,09,46,17.50
2014,07,12,09,47,17.60
2014,07,12,09,48,17.60
2014,07,12,09,49,17.60
2014,07,12,09,50,17.60
2014,07,12,09,51,17.70
2014,07,12,09,52,17.70
2014,07,12,09,53,17.70
2014,07,12,09,54,17.70
2014,07,12,09,55,17.80
2014,07,12,09,56,17.80
2014,07,12,09,57,17.80
2014,07,12,09,58,17.70
2014,07,12,09,59,17.70
2014,07,12,10,00,17.70
2014,07,12,10,01,17.70
2014,07,12,10,02,17.70
2014,07,12,10,03,17.70
2014,07,12,10,04,17.70
2014,07,12,10,05,17.40
2014,07,12,10,06,17.40
2014,07,12,10,07,17.40
2014,07,12,10,08,17.40
2014,07,12,10,09,17.40
2014,07,12,10,10,17.50
2014,07,12,10,11,17.50
2014,07,12,10,12,17.60
2014,07,12,10,13,17.70
2014,07,12,10,14,17.80
2014,07,12,10,15,17.90
2014,07,12,10,16,17.90
2014,07,12,10,17,17.90
2014,07,12,10,18,18.00
2014,07,12,10,19,18.00
2014,07,12,10,20,18.00
2014,07,12,10,21,18.10
2014,07,12,10,22,18.00
2014,07,12,10,23,18.00
2014,07,12,10,24,17.90
2014,07,12,10,25,17.90
2014,07,12,10,26,17.90
2014,07,12,10,27,17.80
2014,07,12,10,28,17.80
2014,07,12,10,29,17.80
2014,07,12,10,30,17.80
2014,07,12,10,31,17.70
2014,07,12,10,32,17.60
2014,07,12,10,33,17.60
2014,07,12,10,34,17.50
2014,07,12,10,35,17.50
2014,07,12,10,36,17.40
2014,07,12,10,37,17.40
2014,07,12,10,38,17.40
2014,07,12,10,39,17.50
2014,07,12,10,40,17.60
2014,07,12,10,41,17.70
2014,07,12,10,42,17.70
2014,07,12,10,43,17.90
2014,07,12,10,44,18.00
2014,07,12,10,45,18.10
2014,07,12,10,46,18.10
2014,07,12,10,47,18.20
2014,07,12,10,48,18.30
2014,07,12,10,49,18.30
2014,07,12,10,50,18.20
2014,07,12,10,51,18.20
2014,07,12,10,52,18.20
2014,07,12,10,53,18.20
2014,07,12,10,54,18.20
2014,07,12,10,55,18.20
2014,07,12,10,56,18.20
2014,07,12,10,57,18.20
2014,07,12,10,58,18.30
2014,07,12,10,59,18.30
2014,07,12,11,00,18.40
2014,07,12,11,01,18.40
2014,07,12,11,02,18.50
2014,07,12,11,03,18.60
2014,07,12,11,04,18.60
2014,07,12,11,05,18.70
2014,07,12,11,06,18.70
2014,07,12,11,07,18.70
2014,07,12,11,08,18.70
2014,07,12,11,09,18.70
2014,07,12,11,10,18.60
2014,07,12,11,11,18.50
2014,07,12,11,12,18.40
2014,07,12,11,13,18.30
2014,07,12,11,14,18.40
2014,07,12,11,15,18.40
2014,07,12,11,16,18.40
2014,07,12,11,17,18.40
2014,07,12,11,18,18.50
2014,07,12,11,19,18.50
2014,07,12,11,20,18.50
2014,07,12,11,21,18.40
2014,07,12,11,22,18.40
2014,07,12,11,23,18.40
2014,07,12,11,24,18.30
2014,07,12,11,25,18.30
2014,07,12,11,26,18.30
2014,07,12,11,27,18.20
2014,07,12,11,28,18.20
2014,07,12,11,29,18.20
2014,07,12,11,30,18.20
2014,07,12,11,31,18.20
2014,07,12,11,32,18.30
2014,07,12,11,33,18.40
2014,07,12,11,34,18.50
2014,07,12,11,35,18.60
2014,07,12,11,36,18.70
2014,07,12,11,37,18.80
2014,07,12,11,38,18.90
2014,07,12,11,39,19.00
2014,07,12,11,40,19.00
2014,07,12,11,41,19.10
2014,07,12,11,42,19.10
2014,07,12,11,43,19.20
2014,07,12,11,44,19.30
2014,07,12,11,45,19.40
2014,07,12,11,46,19.50
2014,07,12,11,47,19.60
2014,07,12,11,48,19.70
2014,07,12,11,49,19.80
2014,07,12,11,50,20.00
2014,07,12,11,51,20.10
2014,07,12,11,52,20.30
2014,07,12,11,53,20.40
2014,07,12,11,54,20.40
2014,07,12,11,55,20.50
2014,07,12,11,56,20.50
2014,07,12,11,57,20.60
2014,07,12,11,58,20.60
2014,07,12,11,59,20.60
2014,07,12,12,00,20.70
2014,07,12,12,01,20.70
2014,07,12,12,02,20.70
2014,07,12,12,03,20.80
2014,07,12,12,04,20.80
2014,07,12,12,05,20.80
2014,07,12,12,06,20.80
2014,07,12,12,07,20.90
2014,07,12,12,08,20.90
2014,07,12,12,09,21.00
2014,07,12,12,10,21.00
2014,07,12,12,11,21.00
2014,07,12,12,12,20.90
2014,07,12,12,13,20.90
2014,07,12,12,14,20.80
2014,07,12,12,15,20.70
2014,07,12,12,16,20.60
2014,07,12,12,17,20.60
2014,07,12,12,18,20.50
2014,07,12,12,19,20.50
2014,07,12,12,20,20.50
2014,07,12,12,21,20.60
2014,07,12,12,22,20.60
2014,07,12,12,23,20.60
2014,07,12,12,24,20.60
2014,07,12,12,25,20.60
2014,07,12,12,26,20.70
2014,07,12,12,27,20.70
2014,07,12,12,28,20.70
2014,07,12,12,29,20.70
2014,07,12,12,30,20.70
2014,07,12,12,31,20.70
2014,07,12,12,32,20.60
2014,07,12,12,33,20.50
2014,07,12,12,34,20.40
2014,07,12,12,35,20.40
2014,07,12,12,36,20.30
2014,07,12,12,37,20.30
2014,07,12,12,38,20.20
2014,07,12,12,39,20.30
2014,07,12,12,40,20.30
2014,07,12,12,41,20.30
2014,07,12,12,42,20.20
2014,07,12,12,43,20.10
2014,07,12,12,44,19.90
2014,07,12,12,45,19.80
2014,07,12,12,46,19.70
2014,07,12,12,47,19.60
2014,07,12,12,48,19.40
2014,07,12,12,49,19.20
2014,07,12,12,50,19.10
2014,07,12,12,51,19.10
2014,07,12,12,52,19.10
2014,07,12,12,53,19.10
2014,07,12,12,54,19.10
2014,07,12,12,55,19.10
2014,07,12,12,56,19.10
2014,07,12,12,57,19.10
2014,07,12,12,58,19.10
2014,07,12,12,59,19.20
2014,07,12,13,00,19.20
2014,07,12,13,01,19.20
2014,07,12,13,02,19.20
2014,07,12,13,03,19.20
2014,07,12,13,04,19.30
2014,07,12,13,05,19.40
2014,07,12,13,06,19.50
2014,07,12,13,07,19.50
2014,07,12,13,08,19.60
2014,07,12,13,09,19.70
2014,07,12,13,10,19.70
2014,07,12,13,11,19.80
2014,07,12,13,12,19.90
2014,07,12,13,13,20.00
2014,07,12,13,14,20.10
2014,07,12,13,15,20.10
2014,07,12,13,16,20.20
2014,07,12,13,17,20.40
2014,07,12,13,18,20.50
2014,07,12,13,19,20.70
2014,07,12,13,20,20.70
2014,07,12,13,21,20.80
2014,07,12,13,22,20.80
2014,07,12,13,23,20.90
2014,07,12,13,24,20.90
2014,07,12,13,25,20.90
2014,07,12,13,26,20.90
2014,07,12,13,27,20.90
2014,07,12,13,28,20.90
2014,07,12,13,29,20.90
2014,07,12,13,30,20.80
2014,07,12,13,31,20.80
2014,07,12,13,32,20.80
2014,07,12,13,33,20.90
2014,07,12,13,34,20.90
2014,07,12,13,35,21.00
2014,07,12,13,36,21.10
2014,07,12,13,37,21.20
2014,07,12,13,38,21.20
2014,07,12,13,39,21.20
2014,07,12,13,40,21.20
2014,07,12,13,41,21.00
2014,07,12,13,42,20.90
2014,07,12,13,43,20.80
2014,07,12,13,44,20.70
2014,07,12,13,45,20.60
2014,07,12,13,46,20.60
2014,07,12,13,47,20.50
2014,07,12,13,48,20.50
2014,07,12,13,49,20.40
2014,07,12,13,50,20.40
2014,07,12,13,51,20.40
2014,07,12,13,52,20.30
2014,07,12,13,53,20.30
2014,07,12,13,54,20.30
2014,07,12,13,55,20.30
2014,07,12,13,56,20.30
2014,07,12,13,57,20.30
2014,07,12,13,58,20.30
2014,07,12,13,59,20.30
2014,07,12,14,00,20.30
2014,07,12,14,01,20.40
2014,07,12,14,02,20.40
2014,07,12,14,03,20.50
2014,07,12,14,04,20.60
2014,07,12,14,05,20.70
2014,07,12,14,06,20.80
2014,07,12,14,07,20.80
2014,07,12,14,08,20.90
2014,07,12,14,09,20.90
2014,07,12,14,10,20.90
2014,07,12,14,11,20.90
2014,07,12,14,12,20.90
2014,07,12,14,13,21.00
2014,07,12,14,14,21.10
2014,07,12,14,15,21.30
2014,07,12,14,16,21.40
2014,07,12,14,17,21.50
2014,07,12,14,18,21.60
2014,07,12,14,19,21.70
2014,07,12,14,20,21.80
2014,07,12,14,21,21.90
2014,07,12,14,22,21.90
2014,07,12,14,23,21.90
2014,07,12,14,24,22.00
2014,07,12,14,25,22.10
2014,07,12,14,26,22.20
2014,07,12,14,27,22.30
2014,07,12,14,28,22.30
2014,07,12,14,29,22.40
2014,07,12,14,30,22.30
2014,07,12,14,31,22.30
2014,07,12,14,32,22.20
2014,07,12,14,33,22.20
2014,07,12,14,34,22.20
2014,07,12,14,35,22.10
2014,07,12,14,36,22.00
2014,07,12,14,37,21.90
2014,07,12,14,38,21.90
2014,07,12,14,39,21.80
2014,07,12,14,40,21.70
2014,07,12,14,41,21.70
2014,07,12,14,42,21.70
2014,07,12,14,43,21.60
2014,07,12,14,44,21.60
2014,07,12,14,45,21.50
2014,07,12,14,46,21.50
2014,07,12,14,47,21.40
2014,07,12,14,48,21.40
2014,07,12,14,49,21.30
2014,07,12,14,50,21.30
2014,07,12,14,51,21.30
2014,07,12,14,52,21.40
2014,07,12,14,53,21.50
2014,07,12,14,54,21.60
2014,07,12,14,55,21.70
2014,07,12,14,56,21.80
2014,07,12,14,57,21.80
2014,07,12,14,58,21.80
2014,07,12,14,59,21.80
2014,07,12,15,00,21.80
2014,07,12,15,01,21.80
2014,07,12,15,02,21.80
2014,07,12,15,03,21.90
2014,07,12,15,04,21.90
2014,07,12,15,05,21.90
2014,07,12,15,06,21.80
2014,07,12,15,07,21.80
2014,07,12,15,08,21.90
2014,07,12,15,09,21.80
2014,07,12,15,10,21.80
2014,07,12,15,11,21.80
2014,07,12,15,12,21.80
2014,07,12,15,13,21.90
2014,07,12,15,14,21.90
2014,07,12,15,15,21.90
2014,07,12,15,16,21.90
2014,07,12,15,17,21.90
2014,07,12,15,18,21.90
2014,07,12,15,19,22.00
2014,07,12,15,20,22.10
2014,07,12,15,21,22.10
2014,07,12,15,22,22.20
2014,07,12,15,23,22.20
2014,07,12,15,24,22.20
2014,07,12,15,25,22.20
2014,07,12,15,26,22.20
2014,07,12,15,27,22.30
2014,07,12,15,28,22.30
2014,07,12,15,29,22.40
2014,07,12,15,30,22.40
2014,07,12,15,31,22.30
2014,07,12,15,32,22.40
2014,07,12,15,33,22.40
2014,07,12,15,34,22.40
2014,07,12,15,35,22.40
2014,07,12,15,36,22.40
2014,07,12,15,37,22.50
2014,07,12,15,38,22.60
2014,07,12,15,39,22.60
2014,07,12,15,40,22.70
2014,07,12,15,41,22.80
2014,07,12,15,42,22.90
2014,07,12,15,43,22.90
2014,07,12,15,44,23.00
2014,07,12,15,45,23.20
2014,07,12,15,46,23.30
2014,07,12,15,47,23.40
2014,07,12,15,48,23.50
2014,07,12,15,49,23.60
2014,07,12,15,50,23.70
2014,07,12,15,51,23.80
2014,07,12,15,52,23.80
2014,07,12,15,53,23.80
2014,07,12,15,54,23.80
2014,07,12,15,55,23.90
2014,07,12,15,56,23.90
2014,07,12,15,57,23.90
2014,07,12,15,58,24.00
2014,07,12,15,59,24.00
2014,07,12,16,00,24.00
2014,07,12,16,01,24.00
2014,07,12,16,02,24.00
2014,07,12,16,03,24.00
2014,07,12,16,04,23.90
2014,07,12,16,05,23.90
2014,07,12,16,06,23.90
2014,07,12,16,07,23.80
2014,07,12,16,08,23.90
2014,07,12,16,09,24.00
2014,07,12,16,10,24.00
2014,07,12,16,11,24.10
2014,07,12,16,12,24.10
2014,07,12,16,13,24.10
2014,07,12,16,14,24.20
2014,07,12,16,15,24.30
2014,07,12,16,16,24.30
2014,07,12,16,17,24.30
2014,07,12,16,18,24.30
2014,07,12,16,19,24.30
2014,07,12,16,20,24.30
2014,07,12,16,21,24.40
2014,07,12,16,22,24.40
2014,07,12,16,23,24.50
2014,07,12,16,24,24.50
2014,07,12,16,25,24.50
2014,07,12,16,26,24.60
2014,07,12,16,27,24.70
2014,07,12,16,28,24.80
2014,07,12,16,29,24.90
2014,07,12,16,30,25.00
2014,07,12,16,31,25.10
2014,07,12,16,32,25.10
2014,07,12,16,33,25.00
2014,07,12,16,34,24.90
2014,07,12,16,35,24.90
2014,07,12,16,36,24.80
2014,07,12,16,37,24.80
2014,07,12,16,38,24.80
2014,07,12,16,39,24.80
2014,07,12,16,40,24.80
2014,07,12,16,41,24.70
2014,07,12,16,42,24.80
2014,07,12,16,43,24.70
2014,07,12,16,44,24.70
2014,07,12,16,45,24.60
2014,07,12,16,46,24.50
2014,07,12,16,47,24.30
2014,07,12,16,48,24.20
2014,07,12,16,49,24.10
2014,07,12,16,50,24.10
2014,07,12,16,51,24.00
2014,07,12,16,52,24.00
2014,07,12,16,53,23.90
2014,07,12,16,54,23.90
2014,07,12,16,55,23.80
2014,07,12,16,56,23.80
2014,07,12,16,57,23.70
2014,07,12,16,58,23.60
2014,07,12,16,59,23.60
2014,07,12,17,00,23.60
2014,07,12,17,01,23.60
2014,07,12,17,02,23.60
2014,07,12,17,03,23.70
2014,07,12,17,04,23.70
2014,07,12,17,05,23.60
2014,07,12,17,06,23.50
2014,07,12,17,07,23.30
2014,07,12,17,08,23.30
2014,07,12,17,09,23.20
2014,07,12,17,10,23.10
2014,07,12,17,11,23.10
2014,07,12,17,12,23.10
2014,07,12,17,13,23.10
2014,07,12,17,14,23.10
2014,07,12,17,15,23.20
2014,07,12,17,16,23.20
2014,07,12,17,17,23.30
2014,07,12,17,18,23.30
2014,07,12,17,19,23.30